Time,TemperatureF,DewpointF,PressureIn,WindDirection,WindDirectionDegrees,WindSpeedMPH,WindSpeedGustMPH,Humidity,HourlyPrecipIn,Conditions,Clouds,dailyrainin,SoftwareType,DateUTC
2013-03-03 08:00:00,26.1,18.9,29.35,SW,225,2.5,2.5,74,0.00,,,0.00,WUHU216HW,2013-03-03 13:00:00,
2013-03-03 08:05:00,26.1,18.5,29.35,SW,225,1.8,2.7,73,0.00,,,0.00,WUHU216HW,2013-03-03 13:05:00,
2013-03-03 08:10:00,26.1,18.9,29.35,SW,225,2.0,2.7,74,0.00,,,0.00,WUHU216HW,2013-03-03 13:10:00,
2013-03-03 08:15:00,26.1,18.9,29.35,SW,225,2.5,3.4,74,0.00,,,0.00,WUHU216HW,2013-03-03 13:15:00,
2013-03-03 08:20:00,26.1,18.3,29.35,SW,225,1.1,3.6,72,0.00,,,0.00,WUHU216HW,2013-03-03 13:20:00,
2013-03-03 08:25:00,26.3,19.1,29.35,SW,225,1.6,3.6,74,0.00,,,0.00,WUHU216HW,2013-03-03 13:25:00,
2013-03-03 08:30:00,26.6,18.8,29.35,SW,225,1.9,3.1,72,0.00,,,0.00,WUHU216HW,2013-03-03 13:30:00,
2013-03-03 08:35:00,26.8,19.0,29.35,SW,225,2.5,3.1,72,0.00,,,0.00,WUHU216HW,2013-03-03 13:35:00,
2013-03-03 08:40:00,26.8,19.0,29.35,SW,225,1.1,2.7,72,0.00,,,0.00,WUHU216HW,2013-03-03 13:40:00,
2013-03-03 08:45:00,27.0,18.8,29.35,SW,225,1.7,4.0,71,0.00,,,0.00,WUHU216HW,2013-03-03 13:45:00,
2013-03-03 08:50:00,27.0,19.2,29.34,South,180,2.5,4.0,72,0.00,,,0.00,WUHU216HW,2013-03-03 13:50:00,
2013-03-03 08:55:00,27.5,19.7,29.35,SSW,208,1.3,2.5,72,0.00,,,0.00,WUHU216HW,2013-03-03 13:55:00,
2013-03-03 09:00:00,27.7,19.5,29.34,WSW,248,1.1,2.9,71,0.00,,,0.00,WUHU216HW,2013-03-03 14:00:00,
2013-03-03 09:05:00,28.4,20.3,29.34,East,90,1.1,4.5,71,0.00,,,0.00,WUHU216HW,2013-03-03 14:05:00,
2013-03-03 09:10:00,28.6,19.8,29.34,North,5,1.2,4.5,69,0.00,,,0.00,WUHU216HW,2013-03-03 14:10:00,
2013-03-03 09:15:00,29.0,20.1,29.34,ENE,62,0.8,4.0,69,0.00,,,0.00,WUHU216HW,2013-03-03 14:15:00,
2013-03-03 09:20:00,29.2,19.2,29.34,ENE,75,1.4,3.4,66,0.00,,,0.00,WUHU216HW,2013-03-03 14:20:00,
2013-03-03 09:25:00,29.2,19.9,29.34,WSW,248,1.8,3.4,68,0.00,,,0.00,WUHU216HW,2013-03-03 14:25:00,
2013-03-03 09:30:00,29.2,19.2,29.34,WNW,289,2.3,4.3,66,0.00,,,0.00,WUHU216HW,2013-03-03 14:30:00,
2013-03-03 09:35:00,29.2,19.5,29.34,WNW,293,2.3,5.8,67,0.00,,,0.00,WUHU216HW,2013-03-03 14:35:00,
2013-03-03 09:40:00,29.3,19.4,29.34,NNE,20,1.5,5.8,66,0.00,,,0.00,WUHU216HW,2013-03-03 14:40:00,
2013-03-03 09:45:00,29.7,19.7,29.34,West,269,1.7,4.0,66,0.00,,,0.00,WUHU216HW,2013-03-03 14:45:00,
2013-03-03 09:50:00,29.9,19.8,29.34,SSE,157,1.4,2.5,66,0.00,,,0.00,WUHU216HW,2013-03-03 14:50:00,
2013-03-03 09:55:00,29.9,19.8,29.34,South,180,4.5,4.5,66,0.00,,,0.00,WUHU216HW,2013-03-03 14:55:00,
2013-03-03 10:00:00,30.4,20.0,29.34,NW,315,1.5,4.5,65,0.00,,,0.00,WUHU216HW,2013-03-03 15:00:00,
2013-03-03 10:05:00,30.4,20.3,29.33,ESE,113,1.3,4.5,66,0.00,,,0.00,WUHU216HW,2013-03-03 15:05:00,
2013-03-03 10:10:00,30.8,20.3,29.34,East,97,2.5,3.6,65,0.00,,,0.00,WUHU216HW,2013-03-03 15:10:00,
2013-03-03 10:15:00,30.8,19.6,29.34,NE,45,2.9,3.6,63,0.00,,,0.00,WUHU216HW,2013-03-03 15:15:00,
2013-03-03 10:20:00,30.4,19.6,29.34,East,81,1.3,3.4,64,0.00,,,0.00,WUHU216HW,2013-03-03 15:20:00,
2013-03-03 10:25:00,30.2,19.4,29.34,NW,313,1.5,3.4,64,0.00,,,0.00,WUHU216HW,2013-03-03 15:25:00,
2013-03-03 10:30:00,30.1,19.3,29.34,NNE,23,2.5,5.4,64,0.00,,,0.00,WUHU216HW,2013-03-03 15:30:00,
2013-03-03 10:35:00,30.2,20.2,29.33,SSW,203,2.9,5.4,66,0.00,,,0.00,WUHU216HW,2013-03-03 15:35:00,
2013-03-03 10:40:00,30.8,20.7,29.33,West,261,1.4,3.8,66,0.00,,,0.00,WUHU216HW,2013-03-03 15:40:00,
2013-03-03 10:45:00,31.1,21.1,29.33,WNW,293,1.3,3.4,66,0.00,,,0.00,WUHU216HW,2013-03-03 15:45:00,
2013-03-03 10:50:00,31.1,20.7,29.33,West,259,2.0,3.4,65,0.00,,,0.00,WUHU216HW,2013-03-03 15:50:00,
2013-03-03 10:55:00,31.0,20.5,29.33,West,280,1.8,3.4,65,0.00,,,0.00,WUHU216HW,2013-03-03 15:55:00,
2013-03-03 11:00:00,31.3,21.2,29.33,SW,225,2.2,2.5,66,0.00,,,0.00,WUHU216HW,2013-03-03 16:00:00,
2013-03-03 11:05:00,31.5,20.7,29.33,WNW,293,2.0,2.9,64,0.00,,,0.00,WUHU216HW,2013-03-03 16:05:00,
2013-03-03 11:10:00,31.9,21.1,29.33,WNW,293,1.8,4.3,64,0.00,,,0.00,WUHU216HW,2013-03-03 16:10:00,
2013-03-03 11:15:00,32.2,21.8,29.33,West,270,1.8,4.3,65,0.00,,,0.00,WUHU216HW,2013-03-03 16:15:00,
2013-03-03 11:20:00,32.4,21.6,29.33,ESE,113,2.0,3.1,64,0.00,,,0.00,WUHU216HW,2013-03-03 16:20:00,
2013-03-03 11:25:00,32.9,21.3,29.33,WNW,288,2.4,4.0,62,0.00,,,0.00,WUHU216HW,2013-03-03 16:25:00,
2013-03-03 11:30:00,33.3,21.7,29.33,West,269,2.3,5.1,62,0.00,,,0.00,WUHU216HW,2013-03-03 16:30:00,
2013-03-03 11:35:00,33.3,21.3,29.33,NW,315,3.1,5.1,61,0.00,,,0.00,WUHU216HW,2013-03-03 16:35:00,
2013-03-03 11:40:00,32.9,21.3,29.33,West,270,1.8,4.0,62,0.00,,,0.00,WUHU216HW,2013-03-03 16:40:00,
2013-03-03 11:45:00,32.8,21.5,29.33,West,270,1.8,3.1,63,0.00,,,0.00,WUHU216HW,2013-03-03 16:45:00,
2013-03-03 11:50:00,32.9,21.3,29.32,WNW,297,2.0,3.4,62,0.00,,,0.00,WUHU216HW,2013-03-03 16:50:00,
2013-03-03 11:55:00,32.8,21.2,29.32,WSW,248,1.8,4.0,62,0.00,,,0.00,WUHU216HW,2013-03-03 16:55:00,
2013-03-03 12:00:00,32.8,21.2,29.32,West,271,2.6,4.0,62,0.00,,,0.00,WUHU216HW,2013-03-03 17:00:00,
2013-03-03 12:05:00,32.6,21.0,29.32,NE,36,1.8,5.6,62,0.00,,,0.00,WUHU216HW,2013-03-03 17:05:00,
2013-03-03 12:10:00,32.0,21.2,29.32,ESE,113,0.9,5.6,64,0.00,,,0.00,WUHU216HW,2013-03-03 17:10:00,
2013-03-03 12:15:00,32.2,21.8,29.32,North,0,1.4,2.5,65,0.00,,,0.00,WUHU216HW,2013-03-03 17:15:00,
2013-03-03 12:20:00,32.4,21.6,29.31,NE,45,2.0,4.0,64,0.00,,,0.00,WUHU216HW,2013-03-03 17:20:00,
2013-03-03 12:25:00,32.4,21.6,29.31,North,357,2.0,4.0,64,0.00,,,0.00,WUHU216HW,2013-03-03 17:25:00,
2013-03-03 12:30:00,32.4,22.0,29.31,NE,34,0.5,4.0,65,0.00,,,0.00,WUHU216HW,2013-03-03 17:30:00,
2013-03-03 12:35:00,32.8,22.2,29.31,NW,315,1.1,2.7,65,0.00,,,0.00,WUHU216HW,2013-03-03 17:35:00,
2013-03-03 12:40:00,33.3,22.4,29.31,West,278,1.4,2.7,64,0.00,,,0.00,WUHU216HW,2013-03-03 17:40:00,
2013-03-03 12:45:00,33.3,22.4,29.31,WNW,293,1.6,2.5,64,0.00,,,0.00,WUHU216HW,2013-03-03 17:45:00,
2013-03-03 12:50:00,33.1,21.9,29.31,SW,230,2.8,4.0,63,0.00,,,0.00,WUHU216HW,2013-03-03 17:50:00,
2013-03-03 12:55:00,32.8,22.2,29.31,West,270,2.5,4.0,65,0.00,,,0.00,WUHU216HW,2013-03-03 17:55:00,
2013-03-03 13:00:00,32.8,22.6,29.31,SE,135,1.6,2.7,66,0.00,,,0.00,WUHU216HW,2013-03-03 18:00:00,
2013-03-03 13:05:00,32.6,22.1,29.31,WNW,303,1.3,3.6,65,0.00,,,0.00,WUHU216HW,2013-03-03 18:05:00,
2013-03-03 13:10:00,32.4,22.3,29.31,SW,225,3.4,5.4,66,0.00,,,0.00,WUHU216HW,2013-03-03 18:10:00,
2013-03-03 13:15:00,32.4,22.3,29.30,NNE,23,2.0,5.4,66,0.00,,,0.00,WUHU216HW,2013-03-03 18:15:00,
2013-03-03 13:20:00,32.0,22.0,29.30,NNW,337,1.5,4.0,66,0.00,,,0.00,WUHU216HW,2013-03-03 18:20:00,
2013-03-03 13:25:00,32.4,22.7,29.30,West,276,1.9,4.0,67,0.00,,,0.00,WUHU216HW,2013-03-03 18:25:00,
2013-03-03 13:30:00,32.8,23.3,29.30,SSE,158,3.1,3.1,68,0.00,,,0.00,WUHU216HW,2013-03-03 18:30:00,
2013-03-03 13:35:00,32.9,23.1,29.30,West,259,2.2,3.4,67,0.00,,,0.00,WUHU216HW,2013-03-03 18:35:00,
2013-03-03 13:40:00,32.8,23.0,29.30,NNW,337,1.5,4.0,67,0.00,,,0.00,WUHU216HW,2013-03-03 18:40:00,
2013-03-03 13:45:00,32.4,23.4,29.30,WNW,293,1.1,4.0,69,0.00,,,0.00,WUHU216HW,2013-03-03 18:45:00,
2013-03-03 13:50:00,32.2,23.2,29.30,NNW,335,2.2,3.4,69,0.00,,,0.00,WUHU216HW,2013-03-03 18:50:00,
2013-03-03 13:55:00,31.9,23.6,29.30,WNW,287,1.4,3.4,71,0.00,,,0.00,WUHU216HW,2013-03-03 18:55:00,
2013-03-03 14:00:00,31.7,24.0,29.30,NNW,330,1.4,2.5,73,0.00,,,0.00,WUHU216HW,2013-03-03 19:00:00,
2013-03-03 14:05:00,31.7,24.0,29.30,North,0,1.8,3.8,73,0.00,,,0.00,WUHU216HW,2013-03-03 19:05:00,
2013-03-03 14:10:00,31.9,24.5,29.30,West,265,0.8,3.8,74,0.00,,,0.00,WUHU216HW,2013-03-03 19:10:00,
2013-03-03 14:16:00,31.9,24.5,29.30,ENE,68,1.8,2.5,74,0.00,,,0.00,WUHU216HW,2013-03-03 19:16:00,
2013-03-03 14:21:00,31.9,24.5,29.30,NW,315,2.7,2.7,74,0.00,,,0.00,WUHU216HW,2013-03-03 19:21:00,
2013-03-03 14:26:00,31.9,24.5,29.30,ESE,113,2.2,3.8,74,0.00,,,0.00,WUHU216HW,2013-03-03 19:26:00,
2013-03-03 14:31:00,31.9,24.5,29.30,West,276,1.0,3.8,74,0.00,,,0.00,WUHU216HW,2013-03-03 19:31:00,
2013-03-03 14:36:00,31.7,24.3,29.30,West,270,0.9,3.1,74,0.00,,,0.00,WUHU216HW,2013-03-03 19:36:00,
2013-03-03 14:41:00,31.7,24.3,29.30,NNW,332,0.9,4.0,74,0.00,,,0.00,WUHU216HW,2013-03-03 19:41:00,
2013-03-03 14:46:00,31.7,24.7,29.29,NW,319,1.8,4.0,75,0.00,,,0.00,WUHU216HW,2013-03-03 19:46:00,
2013-03-03 14:51:00,31.9,24.2,29.29,East,90,1.8,8.1,73,0.00,,,0.00,WUHU216HW,2013-03-03 19:51:00,
2013-03-03 14:56:00,31.7,24.0,29.30,WSW,248,2.2,8.1,73,0.00,,,0.00,WUHU216HW,2013-03-03 19:56:00,
2013-03-03 15:01:00,31.9,24.2,29.30,NW,310,1.9,3.4,73,0.00,,,0.00,WUHU216HW,2013-03-03 20:01:00,
2013-03-03 15:05:00,31.9,23.9,29.30,NW,322,1.5,3.4,72,0.00,,,0.00,WUHU216HW,2013-03-03 20:05:00,
2013-03-03 15:10:00,31.7,24.0,29.30,NNE,15,1.5,2.9,73,0.00,,,0.00,WUHU216HW,2013-03-03 20:10:00,
2013-03-03 15:15:00,31.9,24.2,29.30,WNW,299,0.9,2.7,73,0.00,,,0.00,WUHU216HW,2013-03-03 20:15:00,
2013-03-03 15:20:00,32.0,24.4,29.30,WSW,248,1.3,2.5,73,0.00,,,0.00,WUHU216HW,2013-03-03 20:20:00,
2013-03-03 15:25:00,32.0,24.4,29.30,North,0,1.1,1.6,73,0.00,,,0.00,WUHU216HW,2013-03-03 20:25:00,
2013-03-03 15:30:00,31.9,24.5,29.30,WNW,295,1.7,3.4,74,0.00,,,0.00,WUHU216HW,2013-03-03 20:30:00,
2013-03-03 15:36:00,31.5,24.1,29.30,WNW,293,1.1,3.4,74,0.00,,,0.00,WUHU216HW,2013-03-03 20:36:00,
2013-03-03 15:41:00,31.5,24.1,29.30,NE,45,2.2,2.9,74,0.00,,,0.00,WUHU216HW,2013-03-03 20:41:00,
2013-03-03 15:45:00,31.3,23.9,29.30,SW,225,1.8,3.4,74,0.00,,,0.00,WUHU216HW,2013-03-03 20:45:00,
2013-03-03 15:50:00,31.3,23.9,29.30,WNW,293,2.0,3.4,74,0.00,,,0.00,WUHU216HW,2013-03-03 20:50:00,
2013-03-03 15:56:00,31.5,24.1,29.30,NNW,338,2.0,2.9,74,0.00,,,0.00,WUHU216HW,2013-03-03 20:56:00,
2013-03-03 16:00:00,31.3,23.7,29.30,NE,48,0.9,2.9,73,0.00,,,0.00,WUHU216HW,2013-03-03 21:00:00,
2013-03-03 16:05:00,31.1,23.5,29.30,West,270,1.6,3.8,73,0.00,,,0.00,WUHU216HW,2013-03-03 21:05:00,
2013-03-03 16:10:00,31.1,23.5,29.30,NNW,339,0.7,4.0,73,0.00,,,0.00,WUHU216HW,2013-03-03 21:10:00,
2013-03-03 16:15:00,31.0,23.3,29.30,West,270,1.8,4.0,73,0.00,,,0.00,WUHU216HW,2013-03-03 21:15:00,
2013-03-03 16:20:00,31.0,23.6,29.30,East,90,0.9,2.2,74,0.00,,,0.00,WUHU216HW,2013-03-03 21:20:00,
2013-03-03 16:26:00,31.0,23.6,29.31,North,357,0.6,2.2,74,0.00,,,0.00,WUHU216HW,2013-03-03 21:26:00,
2013-03-03 16:31:00,30.8,23.8,29.31,SSW,203,3.6,6.5,75,0.00,,,0.00,WUHU216HW,2013-03-03 21:31:00,
2013-03-03 16:36:00,30.6,23.6,29.31,WSW,248,0.4,6.5,75,0.00,,,0.00,WUHU216HW,2013-03-03 21:36:00,
2013-03-03 16:41:00,30.6,24.0,29.31,WSW,251,1.7,3.4,76,0.00,,,0.00,WUHU216HW,2013-03-03 21:41:00,
2013-03-03 16:46:00,30.4,24.0,29.31,NNW,338,1.8,3.4,77,0.00,,,0.00,WUHU216HW,2013-03-03 21:46:00,
2013-03-03 16:51:00,30.1,23.7,29.31,WSW,255,0.8,3.4,77,0.00,,,0.00,WUHU216HW,2013-03-03 21:51:00,
2013-03-03 16:56:00,29.9,23.5,29.30,NW,316,1.2,2.2,77,0.00,,,0.00,WUHU216HW,2013-03-03 21:56:00,
2013-03-03 17:01:00,29.9,23.5,29.31,NW,304,1.5,4.5,77,0.00,,,0.00,WUHU216HW,2013-03-03 22:01:00,
2013-03-03 17:06:00,29.7,23.1,29.31,NW,324,0.6,4.5,76,0.00,,,0.00,WUHU216HW,2013-03-03 22:06:00,
2013-03-03 17:11:00,29.7,23.1,29.30,WSW,248,2.9,2.9,76,0.00,,,0.00,WUHU216HW,2013-03-03 22:11:00,
2013-03-03 17:16:00,29.5,23.1,29.31,NNE,13,0.8,6.3,77,0.00,,,0.00,WUHU216HW,2013-03-03 22:16:00,
2013-03-03 17:21:00,29.3,23.0,29.31,NNW,332,0.7,6.3,77,0.00,,,0.00,WUHU216HW,2013-03-03 22:21:00,
2013-03-03 17:26:00,29.2,22.9,29.31,NNW,335,0.6,2.2,77,0.00,,,0.00,WUHU216HW,2013-03-03 22:26:00,
2013-03-03 17:31:00,29.2,23.1,29.31,NNW,338,1.1,2.2,78,0.00,,,0.00,WUHU216HW,2013-03-03 22:31:00,
2013-03-03 17:36:00,29.2,22.9,29.31,NW,315,0.7,1.8,77,0.00,,,0.00,WUHU216HW,2013-03-03 22:36:00,
2013-03-03 17:41:00,29.2,22.9,29.31,WNW,293,1.3,1.3,77,0.00,,,0.00,WUHU216HW,2013-03-03 22:41:00,
2013-03-03 17:46:00,29.0,23.0,29.31,SW,236,1.1,3.4,78,0.00,,,0.00,WUHU216HW,2013-03-03 22:46:00,
2013-03-03 17:51:00,28.8,22.8,29.31,NNW,342,0.8,4.7,78,0.00,,,0.00,WUHU216HW,2013-03-03 22:51:00,
2013-03-03 17:56:00,28.8,22.8,29.31,NNW,337,0.7,4.7,78,0.00,,,0.00,WUHU216HW,2013-03-03 22:56:00,
2013-03-03 18:01:00,28.6,23.0,29.31,WNW,303,2.8,4.0,79,0.00,,,0.00,WUHU216HW,2013-03-03 23:01:00,
2013-03-03 18:06:00,28.6,23.0,29.31,NW,317,1.4,4.0,79,0.00,,,0.00,WUHU216HW,2013-03-03 23:06:00,
2013-03-03 18:11:00,28.4,22.8,29.32,NW,317,1.8,3.1,79,0.00,,,0.00,WUHU216HW,2013-03-03 23:11:00,
2013-03-03 18:16:00,28.4,22.8,29.32,North,352,1.4,3.4,79,0.00,,,0.00,WUHU216HW,2013-03-03 23:16:00,
2013-03-03 18:21:00,28.4,22.8,29.31,WNW,290,0.7,3.4,79,0.00,,,0.00,WUHU216HW,2013-03-03 23:21:00,
2013-03-03 18:26:00,28.4,22.8,29.32,NW,315,2.0,2.9,79,0.00,,,0.00,WUHU216HW,2013-03-03 23:26:00,
2013-03-03 18:31:00,28.4,22.8,29.32,North,0,0.9,3.4,79,0.00,,,0.00,WUHU216HW,2013-03-03 23:31:00,
2013-03-03 18:36:00,28.4,22.8,29.32,WNW,293,2.7,3.4,79,0.00,,,0.00,WUHU216HW,2013-03-03 23:36:00,
2013-03-03 18:41:00,28.4,22.8,29.32,West,270,1.1,4.7,79,0.00,,,0.00,WUHU216HW,2013-03-03 23:41:00,
2013-03-03 18:46:00,28.4,22.8,29.32,SSE,158,1.1,4.7,79,0.00,,,0.00,WUHU216HW,2013-03-03 23:46:00,
2013-03-03 18:51:00,28.4,22.8,29.33,West,280,1.2,3.1,79,0.00,,,0.00,WUHU216HW,2013-03-03 23:51:00,
2013-03-03 18:56:00,28.4,22.4,29.33,East,90,2.5,2.5,78,0.00,,,0.00,WUHU216HW,2013-03-03 23:56:00,
2013-03-03 19:01:00,28.4,22.4,29.33,WNW,293,1.8,2.5,78,0.00,,,0.00,WUHU216HW,2013-03-04 00:01:00,
2013-03-03 19:06:00,28.4,22.2,29.33,SSW,203,0.4,2.2,77,0.00,,,0.00,WUHU216HW,2013-03-04 00:06:00,
2013-03-03 19:11:00,28.4,22.2,29.33,ESE,113,0.9,2.5,77,0.00,,,0.00,WUHU216HW,2013-03-04 00:11:00,
2013-03-03 19:16:00,28.3,22.0,29.33,SW,232,0.5,3.1,77,0.00,,,0.00,WUHU216HW,2013-03-04 00:16:00,
2013-03-03 19:21:00,28.4,22.2,29.33,WNW,293,1.1,3.1,77,0.00,,,0.00,WUHU216HW,2013-03-04 00:21:00,
2013-03-03 19:26:00,28.3,22.0,29.33,East,90,1.1,3.4,77,0.00,,,0.00,WUHU216HW,2013-03-04 00:26:00,
2013-03-03 19:31:00,28.3,21.6,29.33,WNW,298,0.7,3.4,76,0.00,,,0.00,WUHU216HW,2013-03-04 00:31:00,
2013-03-03 19:36:00,28.3,21.6,29.33,West,270,0.4,2.2,76,0.00,,,0.00,WUHU216HW,2013-03-04 00:36:00,
2013-03-03 19:41:00,28.3,21.6,29.33,NW,322,0.6,2.5,76,0.00,,,0.00,WUHU216HW,2013-03-04 00:41:00,
2013-03-03 19:46:00,28.3,21.6,29.33,NNE,33,1.3,2.5,76,0.00,,,0.00,WUHU216HW,2013-03-04 00:46:00,
2013-03-03 19:51:00,28.1,21.2,29.33,WNW,291,1.3,3.4,75,0.00,,,0.00,WUHU216HW,2013-03-04 00:51:00,
2013-03-03 19:56:00,27.9,21.2,29.34,NW,316,1.2,3.4,76,0.00,,,0.00,WUHU216HW,2013-03-04 00:56:00,
2013-03-03 20:01:00,27.9,21.0,29.34,SSE,158,1.6,2.9,75,0.00,,,0.00,WUHU216HW,2013-03-04 01:01:00,
2013-03-03 20:06:00,27.9,21.0,29.34,North,0,2.0,2.9,75,0.00,,,0.00,WUHU216HW,2013-03-04 01:06:00,
2013-03-03 20:11:00,27.7,21.1,29.34,North,355,1.0,2.7,76,0.00,,,0.00,WUHU216HW,2013-03-04 01:11:00,
2013-03-03 20:16:00,27.7,20.8,29.34,NNW,338,2.9,4.7,75,0.00,,,0.00,WUHU216HW,2013-03-04 01:16:00,
2013-03-03 20:21:00,27.7,20.8,29.34,NW,315,1.8,4.7,75,0.00,,,0.00,WUHU216HW,2013-03-04 01:21:00,
2013-03-03 20:26:00,27.5,20.6,29.35,WSW,248,0.7,2.5,75,0.00,,,0.00,WUHU216HW,2013-03-04 01:26:00,
2013-03-03 20:31:00,27.4,20.2,29.35,NNW,334,2.0,4.3,74,0.00,,,0.00,WUHU216HW,2013-03-04 01:31:00,
2013-03-03 20:36:00,27.4,20.2,29.35,East,81,1.3,4.3,74,0.00,,,0.00,WUHU216HW,2013-03-04 01:36:00,
2013-03-03 20:41:00,27.2,19.6,29.35,WNW,293,2.2,4.0,73,0.00,,,0.00,WUHU216HW,2013-03-04 01:41:00,
2013-03-03 20:46:00,27.0,19.4,29.35,North,354,2.4,3.8,73,0.00,,,0.00,WUHU216HW,2013-03-04 01:46:00,
2013-03-03 20:51:00,27.0,19.8,29.34,WNW,293,2.7,4.0,74,0.00,,,0.00,WUHU216HW,2013-03-04 01:51:00,
2013-03-03 20:56:00,27.0,19.8,29.34,NNW,338,1.8,4.0,74,0.00,,,0.00,WUHU216HW,2013-03-04 01:56:00,
2013-03-03 21:01:00,26.8,19.9,29.35,NNE,20,1.1,2.7,75,0.00,,,0.00,WUHU216HW,2013-03-04 02:01:00,
2013-03-03 21:06:00,26.6,19.5,29.35,WNW,298,1.2,5.1,74,0.00,,,0.00,WUHU216HW,2013-03-04 02:06:00,
2013-03-03 21:11:00,26.5,19.3,29.34,NW,321,2.1,5.1,74,0.00,,,0.00,WUHU216HW,2013-03-04 02:11:00,
2013-03-03 21:16:00,26.5,19.5,29.34,NNW,338,0.9,4.5,75,0.00,,,0.00,WUHU216HW,2013-03-04 02:16:00,
2013-03-03 21:21:00,26.3,19.1,29.35,West,268,3.1,4.7,74,0.00,,,0.00,WUHU216HW,2013-03-04 02:21:00,
2013-03-03 21:26:00,26.3,19.1,29.34,NW,309,1.2,4.9,74,0.00,,,0.00,WUHU216HW,2013-03-04 02:26:00,
2013-03-03 21:31:00,26.5,19.3,29.34,NNW,337,1.5,4.9,74,0.00,,,0.00,WUHU216HW,2013-03-04 02:31:00,
2013-03-03 21:36:00,26.3,19.1,29.34,NW,321,1.6,4.0,74,0.00,,,0.00,WUHU216HW,2013-03-04 02:36:00,
2013-03-03 21:41:00,26.3,19.1,29.34,ESE,113,4.3,4.3,74,0.00,,,0.00,WUHU216HW,2013-03-04 02:41:00,